EW9837 Weather Reports


Display with metric or nautical units.
time (UTC)temp
F
wind
direction
speed
MPH
gust
MPH
rain 1hr
in
rain 24hr
in
rain mn
in
humidity
%
barometer
mb
20260903160110 48 186 1.0 6.0 0.00 0.44 0.00 98 1013.5
20260903153045 47 343 0.0 2.0 0.00 0.44 0.00 98 1013.5
20260903151609 47 252 0.0 4.0 0.00 0.44 0.00 98 1013.4
20260903150035 46 100 0.0 6.0 0.00 0.44 0.00 98 1013.4
20260903144531 45 309 1.0 4.0 0.00 0.44 0.00 98 1013.3
20260903141534 44 185 2.0 4.0 0.00 0.44 0.00 98 1013.0
20260903134535 43 286 1.0 4.0 0.00 0.44 0.00 98 1012.8
20260903133151 43 185 1.0 5.0 0.00 0.44 0.00 98 1012.6
20260903131607 42 156 1.0 4.0 0.00 0.44 0.00 98 1012.6
20260903130032 42 203 2.0 6.0 0.00 0.44 0.00 98 1012.5
20260903124605 41 176 1.0 3.0 0.00 0.44 0.00 98 1012.5
20260903123034 41 184 1.0 4.0 0.00 0.44 0.00 98 1012.6
20260903121534 41 207 2.0 4.0 0.00 0.44 0.00 97 1012.5
20260903114607 42 168 0.0 5.0 0.00 0.44 0.00 97 1012.6
20260903111535 40 193 3.0 5.0 0.00 0.44 0.00 97 1012.5
20260903103043 42 166 3.0 6.0 0.00 0.44 0.00 97 1012.0
20260903100033 42 169 2.0 5.0 0.00 0.44 0.00 97 1012.2
20260903094610 42 182 1.0 5.0 0.00 0.44 0.00 96 1012.2
20260903093036 43 180 0.0 1.0 0.00 0.44 0.00 96 1012.2
20260903091644 43 167 0.0 3.0 0.00 0.44 0.00 96 1012.1
20260903090034 43 191 1.0 4.0 0.00 0.44 0.00 96 1012.3
20260903083033 44 150 1.0 3.0 0.00 0.44 0.00 96 1012.3
20260903080034 46 171 3.0 5.0 0.00 0.44 0.00 95 1012.3
20260903074605 45 212 0.0 4.0 0.00 0.44 0.00 95 1012.0
20260903073035 46 204 2.0 4.0 0.00 0.44 0.00 95 1011.9
20260903071606 46 305 1.0 4.0 0.00 0.44 0.00 95 1011.9
20260903070029 46 312 1.0 6.0 0.00 0.44 0.00 94 1011.9
20260903064530 46 308 0.0 6.0 0.00 0.44 0.44 94 1011.9
20260903061536 47 314 1.0 4.0 0.00 0.44 0.44 93 1012.0
20260903060035 47 321 3.0 6.0 0.00 0.44 0.44 94 1012.1
20260903051532 48 183 0.0 5.0 0.00 0.44 0.44 93 1011.8
20260903050107 49 337 0.0 4.0 0.00 0.44 0.44 92 1011.7
20260903044535 49 296 0.0 6.0 0.00 0.44 0.44 91 1011.7
20260903043031 50 265 0.0 8.0 0.00 0.44 0.44 91 1011.6
20260903041531 51 231 6.0 13.0 0.00 0.44 0.44 93 1011.5
20260903040035 51 229 6.0 14.0 0.00 0.44 0.44 94 1011.4
20260903034530 51 224 5.0 13.0 0.00 0.44 0.44 95 1011.3
20260903033030 51 228 3.0 10.0 0.01 0.44 0.44 95 1011.2
20260903031532 51 259 2.0 7.0 0.07 0.44 0.44 95 1011.2
20260903030036 52 234 4.0 10.0 0.12 0.44 0.44 95 1011.1
20260903024532 53 234 4.0 11.0 0.19 0.44 0.43 96 1010.9
20260903023153 54 188 3.0 14.0 0.19 0.43 0.37 96 1011.0
20260903021534 55 294 0.0 3.0 0.13 0.37 0.32 96 1010.9
20260903020033 55 336 2.0 7.0 0.10 0.32 0.25 96 1010.5
20260903014531 55 329 3.0 5.0 0.04 0.25 0.24 96 1010.0
20260903013037 55 30 0.0 3.0 0.05 0.24 0.24 96 1010.1
20260903011536 55 16 0.0 1.0 0.05 0.24 0.22 96 1010.3
20260903004537 55 333 0.0 5.0 0.07 0.21 0.19 95 1010.3
20260903003104 56 314 3.0 6.0 0.07 0.19 0.19 95 1010.3
20260903001530 56 265 0.0 1.0 0.07 0.19 0.15 95 1010.4
20260903000031 55 315 0.0 1.0 0.04 0.15 0.14 95 1010.4
20260902234534 55 315 1.0 3.0 0.04 0.14 0.12 95 1010.2
20260902233036 56 315 3.0 5.0 0.03 0.12 0.12 95 1010.3
20260902231535 56 330 3.0 5.0 0.03 0.12 0.11 95 1010.4
20260902230034 55 327 1.0 5.0 0.03 0.11 0.10 95 1010.6
20260902224533 55 326 3.0 6.0 0.04 0.10 0.09 95 1010.4
20260902223036 55 306 1.0 5.0 0.03 0.09 0.09 94 1010.4
20260902221534 55 324 4.0 8.0 0.05 0.09 0.08 94 1010.3
20260902220030 56 330 4.0 10.0 0.04 0.08 0.06 93 1010.2
20260902211535 56 326 2.0 5.0 0.03 0.04 0.04 90 1010.0
20260902210041 56 349 2.0 5.0 0.04 0.04 0.04 89 1010.1
20260902210034 56 37 1.0 4.0 0.04 0.04 0.02 88 1010.2
20260902201535 57 342 3.0 6.0 0.01 0.01 0.00 84 1010.4
20260902194608 58 10 5.0 12.0 0.00 0.00 0.00 79 1010.3
20260902193033 58 137 1.0 9.0 0.00 0.00 0.00 78 1010.3
20260902191553 59 63 4.0 9.0 0.00 0.00 0.00 80 1010.3
20260902190034 59 23 3.0 5.0 0.00 0.00 0.00 78 1010.4
20260902184642 59 85 0.0 3.0 0.00 0.00 0.00 76 1010.4
20260902183107 60 273 0.0 2.0 0.00 0.00 0.00 75 1010.5
20260902181532 59 291 1.0 4.0 0.00 0.00 0.00 76 1010.4
20260902180031 59 360 0.0 3.0 0.00 0.00 0.00 77 1010.4
20260902174535 58 359 1.0 5.0 0.00 0.00 0.00 75 1010.3
20260902173037 60 318 2.0 7.0 0.00 0.00 0.00 74 1010.4
20260902171529 59 310 1.0 5.0 0.00 0.00 0.00 77 1010.6
20260902170035 58 325 2.0 4.0 0.00 0.00 0.00 78 1010.7
20260902164534 57 317 2.0 4.0 0.00 0.00 0.00 79 1010.9
20260902163030 57 5 3.0 5.0 0.00 0.00 0.00 80 1011.0
20260902161534 57 50 2.0 5.0 0.00 0.00 0.00 81 1011.2